Temp
-14 -14 -14 -14 -14 -14 -13 -13 -13 -13 -13 -14 -13 -13 -13 -13 -13 -14 -13 -13 -14 -14 -14 -14 -14 -14 -14 -14 -14 -14 -14 -14 -14 -14 -14 -14 -14 -14 -14 -14 -14 -14
-15 -14 -14 -14 -14 -14 -13 -13 -13 -13 -13 -14 -13 -13 -13 -13 -13 -13 -14 -14 -14 -14 -14 -14 -14 -14 -14 -14 -14 -14 -14 -14 -14 -14 -14 -14 -14 -14 -14 -14 -14 -14
-15 -15 -14 -14 -14 -14 -14 -13 -13 -13 -14 -14 -13 -13 -13 -13 -13 -13 -14 -14 -14 -14 -14 -14 -14 -14 -14 -14 -14 -14 -14 -14 -14 -14 -14 -14 -14 -14 -14 -14 -14 -14
-15 -15 -15 -14 -14 -14 -14 -13 -13 -13 -14 -14 -13 -14 -14 -14 -14 -14 -14 -14 -14 -14 -14 -15 -15 -15 -15 -15 -15 -14 -14 -14 -14 -14 -14 -14 -14 -14 -14 -14 -14 -14
-15 -16 -16 -15 -14 -14 -14 -14 -13 -13 -14 -14 -14 -14 -14 -14 -14 -14 -14 -14 -15 -15 -15 -15 -15 -15 -15 -15 -15 -14 -14 -14 -14 -14 -14 -14 -14 -14 -14 -14 -14 -14
-16 -16 -16 -16 -15 -15 -14 -14 -14 -14 -14 -14 -14 -14 -14 -14 -14 -14 -15 -15 -15 -16 -16 -16 -15 -15 -15 -15 -15 -14 -14 -14 -14 -14 -14 -14 -14 -14 -14 -14 -14 -14
-17 -16 -16 -15 -15 -15 -15 -14 -14 -14 -14 -14 -14 -15 -15 -15 -15 -15 -15 -16 -16 -16 -16 -16 -15 -15 -15 -15 -15 -15 -14 -14 -14 -14 -14 -14 -14 -14 -14 -13 -13 -13
-17 -17 -16 -15 -15 -15 -16 -16 -15 -15 -14 -14 -15 -15 -15 -16 -16 -16 -16 -16 -16 -16 -16 -16 -15 -15 -15 -15 -15 -15 -15 -15 -14 -14 -14 -14 -14 -14 -14 -14 -14 -14
-17 -17 -17 -16 -15 -16 -16 -17 -17 -16 -15 -15 -15 -16 -16 -17 -17 -17 -16 -16 -16 -16 -16 -16 -16 -15 -15 -15 -15 -15 -15 -15 -15 -14 -14 -14 -14 -14 -14 -14 -14 -14
-17 -17 -17 -17 -16 -16 -16 -17 -17 -17 -16 -17 -17 -17 -17 -17 -17 -17 -17 -17 -17 -16 -16 -16 -16 -16 -15 -15 -15 -15 -15 -15 -15 -14 -14 -14 -14 -14 -14 -14 -14 -14
-17 -17 -17 -17 -17 -16 -16 -17 -17 -17 -17 -17 -18 -18 -18 -18 -18 -18 -17 -17 -17 -17 -16 -16 -16 -16 -15 -15 -15 -15 -15 -15 -15 -14 -14 -14 -14 -14 -14 -14 -14 -14
-18 -17 -17 -17 -17 -17 -17 -17 -17 -17 -17 -17 -18 -18 -18 -18 -18 -18 -17 -17 -17 -17 -16 -16 -16 -16 -15 -15 -15 -15 -15 -15 -15 -15 -15 -14 -14 -14 -14 -15 -15 -15
-18 -17 -17 -17 -17 -17 -17 -17 -17 -17 -17 -17 -18 -19 -18 -18 -18 -18 -18 -17 -17 -17 -16 -16 -16 -16 -15 -15 -15 -15 -15 -15 -15 -15 -15 -14 -14 -14 -15 -15 -15 -15
-18 -18 -17 -17 -17 -17 -17 -17 -17 -17 -17 -17 -18 -19 -18 -18 -18 -18 -18 -17 -17 -17 -16 -16 -16 -16 -15 -15 -15 -15 -15 -15 -15 -15 -15 -15 -15 -15 -15 -15 -15 -15
-19 -18 -18 -17 -17 -17 -18 -18 -18 -18 -18 -18 -18 -18 -18 -18 -18 -18 -17 -17 -17 -17 -16 -16 -16 -16 -16 -15 -15 -15 -15 -15 -15 -15 -15 -15 -15 -15 -15 -15 -15 -16
-19 -19 -18 -18 -17 -17 -18 -18 -18 -18 -18 -18 -18 -18 -18 -18 -18 -17 -17 -17 -17 -16 -16 -16 -16 -16 -15 -15 -15 -15 -15 -15 -15 -15 -15 -15 -15 -15 -15 -15 -16 -16
-19 -19 -19 -18 -18 -17 -18 -18 -18 -18 -18 -18 -18 -18 -18 -18 -18 -17 -17 -17 -16 -16 -16 -16 -16 -15 -15 -15 -15 -15 -15 -15 -15 -15 -15 -15 -15 -15 -15 -16 -16 -16
-20 -20 -19 -19 -18 -18 -18 -19 -18 -18 -18 -18 -18 -18 -18 -18 -17 -17 -17 -17 -16 -16 -16 -16 -15 -15 -15 -15 -15 -15 -15 -15 -15 -15 -15 -15 -15 -15 -16 -16 -16 -16
-20 -21 -20 -19 -19 -19 -19 -19 -18 -18 -18 -18 -18 -18 -18 -18 -17 -17 -17 -17 -16 -16 -16 -16 -15 -15 -15 -15 -15 -15 -15 -15 -15 -15 -15 -15 -15 -16 -16 -16 -16 -17
-21 -21 -21 -20 -20 -19 -19 -19 -18 -18 -18 -18 -18 -18 -18 -17 -17 -17 -17 -16 -16 -16 -16 -15 -15 -15 -15 -15 -15 -15 -15 -15 -15 -15 -15 -16 -16 -16 -16 -16 -17 -17
-22 -21 -20 -20 -20 -20 -19 -19 -18 -18 -18 -18 -18 -18 -17 -17 -17 -17 -16 -16 -16 -16 -16 -15 -15 -15 -15 -15 -15 -15 -15 -15 -15 -15 -16 -16 -16 -16 -17 -17 -17 -17
-22 -20 -20 -21 -20 -20 -19 -19 -18 -18 -18 -18 -18 -18 -17 -17 -17 -16 -16 -16 -16 -16 -16 -15 -15 -15 -15 -15 -15 -15 -15 -16 -16 -16 -16 -16 -16 -17 -17 -17 -17 -17
-21 -21 -21 -20 -20 -19 -19 -19 -18 -18 -18 -18 -18 -18 -17 -17 -17 -16 -16 -16 -16 -16 -16 -16 -15 -15 -16 -16 -16 -16 -16 -16 -16 -16 -16 -17 -17 -17 -17 -17 -17 -17
-21 -21 -20 -20 -20 -19 -19 -19 -18 -18 -18 -18 -18 -17 -17 -17 -17 -16 -16 -16 -16 -16 -16 -16 -16 -16 -16 -16 -16 -16 -16 -16 -16 -17 -17 -17 -17 -17 -17 -17 -17 -17
-21 -20 -20 -20 -19 -19 -19 -19 -18 -18 -18 -18 -18 -17 -17 -17 -16 -16 -16 -16 -16 -16 -16 -16 -16 -16 -16 -16 -16 -16 -17 -17 -17 -17 -17 -17 -17 -17 -17 -17 -17 -17
-20 -20 -20 -19 -19 -19 -19 -18 -18 -18 -18 -18 -17 -17 -17 -17 -16 -16 -16 -16 -16 -16 -16 -16 -16 -16 -16 -16 -17 -17 -17 -17 -17 -17 -17 -17 -17 -17 -16 -17 -17 -17
Height
5669 5673 5677 5681 5685 5688 5692 5694 5695 5698 5703 5707 5709 5711 5714 5717 5719 5721 5724 5725 5728 5729 5730 5731 5732 5734 5736 5737 5738 5739 5740 5741 5742 5743 5743 5745 5746 5747 5748 5749 5750 5750
5661 5666 5669 5673 5678 5682 5686 5688 5689 5691 5694 5699 5703 5706 5709 5712 5714 5716 5718 5721 5723 5724 5725 5726 5728 5729 5731 5731 5733 5735 5736 5737 5737 5738 5739 5740 5741 5742 5743 5743 5743 5744
5653 5658 5662 5667 5671 5675 5678 5680 5682 5684 5688 5692 5697 5700 5703 5706 5708 5710 5713 5715 5716 5717 5719 5721 5722 5724 5725 5727 5728 5730 5731 5732 5733 5734 5735 5736 5737 5737 5737 5737 5738 5738
5645 5650 5655 5660 5664 5668 5671 5674 5676 5679 5683 5687 5691 5694 5697 5699 5701 5704 5707 5709 5710 5712 5714 5715 5716 5718 5720 5722 5724 5725 5726 5728 5729 5730 5731 5732 5732 5732 5732 5732 5732 5733
5636 5642 5647 5652 5656 5661 5665 5667 5670 5673 5677 5681 5684 5687 5690 5693 5697 5699 5701 5703 5704 5706 5708 5710 5712 5714 5716 5718 5719 5721 5722 5723 5724 5725 5726 5726 5726 5727 5727 5727 5727 5728
5628 5634 5640 5645 5649 5654 5658 5661 5663 5667 5671 5674 5677 5681 5684 5688 5692 5694 5695 5697 5699 5701 5703 5705 5707 5710 5712 5714 5715 5716 5717 5718 5719 5720 5720 5721 5721 5722 5722 5722 5722 5722
5622 5627 5633 5639 5643 5647 5651 5654 5656 5660 5665 5669 5671 5674 5678 5682 5687 5689 5690 5692 5695 5697 5699 5701 5704 5706 5708 5710 5710 5711 5712 5714 5715 5715 5716 5717 5717 5717 5717 5717 5717 5717
5615 5620 5625 5631 5636 5641 5645 5647 5651 5655 5659 5663 5667 5670 5672 5676 5680 5683 5685 5688 5691 5693 5696 5698 5700 5702 5704 5705 5706 5707 5709 5710 5711 5711 5712 5712 5713 5713 5713 5713 5713 5712
5606 5612 5618 5623 5629 5635 5640 5643 5647 5650 5653 5657 5661 5665 5668 5672 5675 5678 5681 5684 5687 5689 5692 5694 5696 5698 5700 5701 5703 5704 5705 5706 5707 5707 5708 5708 5708 5708 5708 5708 5708 5707
5597 5604 5610 5616 5622 5628 5634 5639 5643 5646 5649 5652 5656 5660 5664 5668 5671 5674 5678 5681 5684 5686 5689 5691 5693 5695 5696 5698 5699 5700 5701 5702 5703 5703 5703 5704 5703 5703 5703 5703 5702 5701
5589 5595 5601 5609 5616 5622 5627 5633 5638 5642 5645 5648 5652 5655 5660 5664 5667 5671 5675 5678 5681 5683 5685 5687 5689 5691 5693 5694 5696 5696 5697 5698 5698 5698 5699 5699 5698 5698 5698 5697 5697 5696
5579 5587 5595 5603 5610 5616 5621 5627 5633 5637 5641 5645 5648 5652 5656 5660 5664 5667 5671 5674 5677 5680 5682 5684 5685 5687 5689 5690 5691 5692 5692 5693 5693 5694 5694 5694 5693 5693 5693 5692 5692 5691
5569 5580 5590 5597 5603 5609 5615 5621 5627 5632 5636 5640 5645 5649 5653 5657 5660 5663 5667 5670 5673 5675 5678 5680 5681 5683 5684 5685 5686 5687 5688 5688 5688 5689 5689 5689 5689 5688 5688 5687 5686 5686
5561 5572 5582 5589 5596 5602 5609 5615 5621 5626 5631 5635 5640 5645 5650 5654 5657 5660 5663 5666 5669 5671 5673 5675 5677 5679 5680 5681 5682 5683 5683 5684 5684 5684 5684 5684 5683 5683 5682 5682 5681 5680
5552 5562 5573 5582 5589 5595 5603 5610 5616 5621 5626 5631 5637 5642 5646 5649 5653 5657 5659 5662 5665 5667 5669 5671 5672 5674 5675 5676 5677 5678 5678 5679 5679 5679 5679 5678 5678 5677 5677 5676 5675 5675
5543 5553 5564 5574 5583 5590 5598 5605 5611 5616 5622 5627 5633 5637 5641 5645 5649 5652 5656 5659 5661 5663 5665 5666 5667 5668 5670 5671 5672 5673 5673 5674 5674 5674 5674 5673 5673 5672 5671 5671 5670 5669
5536 5546 5556 5567 5577 5586 5593 5599 5606 5612 5618 5623 5628 5633 5637 5641 5645 5649 5652 5655 5657 5659 5660 5661 5662 5663 5665 5666 5667 5668 5668 5668 5668 5669 5668 5668 5667 5667 5666 5666 5665 5664
5531 5540 5550 5561 5571 5580 5587 5594 5602 5608 5614 5620 5624 5629 5633 5637 5641 5644 5647 5650 5652 5654 5655 5656 5657 5659 5660 5661 5662 5663 5663 5663 5663 5663 5663 5663 5662 5662 5661 5661 5660 5659
5526 5535 5545 5556 5566 5574 5581 5589 5597 5604 5610 5615 5620 5624 5629 5633 5636 5640 5642 5645 5647 5648 5650 5651 5652 5654 5655 5656 5657 5658 5658 5659 5659 5659 5658 5658 5657 5657 5656 5655 5655 5654
5522 5533 5543 5552 5560 5568 5577 5585 5593 5600 5605 5611 5616 5620 5624 5628 5632 5635 5637 5639 5642 5643 5645 5646 5648 5649 5651 5652 5652 5653 5654 5654 5654 5654 5653 5653 5652 5651 5651 5650 5650 5649
5521 5533 5541 5548 5556 5565 5573 5581 5589 5595 5601 5606 5611 5615 5619 5624 5627 5630 5632 5635 5637 5639 5641 5642 5644 5645 5646 5647 5648 5649 5649 5649 5648 5648 5647 5647 5646 5646 5646 5645 5645 5644
5521 5531 5539 5546 5554 5562 5570 5578 5585 5591 5597 5602 5606 5611 5615 5619 5622 5625 5628 5630 5632 5635 5637 5638 5639 5641 5642 5643 5643 5644 5644 5643 5643 5642 5642 5641 5641 5641 5640 5640 5639 5637
5520 5530 5537 5545 5552 5559 5567 5574 5581 5587 5592 5597 5602 5607 5611 5615 5618 5621 5624 5626 5628 5631 5632 5634 5635 5637 5638 5638 5638 5638 5638 5638 5637 5637 5637 5636 5636 5635 5634 5634 5632 5631
5520 5529 5537 5543 5550 5556 5564 5571 5577 5583 5589 5594 5599 5603 5606 5610 5613 5617 5619 5622 5624 5626 5628 5629 5631 5632 5633 5633 5633 5633 5633 5632 5632 5632 5631 5630 5630 5629 5628 5627 5626 5625
5522 5530 5536 5542 5549 5555 5561 5567 5574 5580 5586 5590 5594 5599 5602 5606 5610 5613 5615 5617 5619 5621 5623 5624 5625 5626 5626 5627 5627 5627 5627 5626 5625 5626 5625 5624 5624 5623 5623 5622 5621 5620
5525 5531 5537 5543 5549 5555 5560 5566 5573 5578 5583 5587 5591 5595 5599 5602 5606 5608 5610 5612 5614 5616 5618 5618 5619 5620 5620 5620 5621 5621 5621 5620 5620 5620 5620 5619 5619 5618 5618 5617 5617 5615
Wind_Speed
63 72 76 73 69 70 70 66 65 68 68 65 58 54 54 55 54 52 54 54 48 42 41 41 42 42 40 38 39 39 39 40 38 35 32 29 25 24 25 29 31 33
57 68 77 80 76 72 71 68 62 62 66 67 62 55 54 54 51 51 53 51 46 43 41 38 37 36 37 37 34 31 31 31 31 29 27 25 26 29 34 34 34 35
58 61 68 75 79 76 69 65 62 59 59 60 58 54 55 53 47 46 48 45 41 39 38 35 32 30 29 29 28 26 27 28 29 28 28 29 33 37 37 35 35 35
68 63 61 65 73 74 66 63 65 61 56 55 54 50 51 48 41 40 43 42 39 36 33 31 28 26 25 25 26 26 26 27 29 30 32 35 37 37 35 35 35 35
81 75 68 63 65 68 63 59 60 60 57 56 53 47 45 41 35 35 37 35 34 32 29 28 27 27 27 27 27 27 27 29 30 32 33 35 35 34 34 35 35 35
87 84 77 69 65 65 66 63 59 58 55 54 52 47 43 40 37 37 35 31 31 30 29 30 29 28 27 26 25 25 26 27 28 30 32 33 33 34 34 35 35 36
85 84 82 76 69 63 65 68 68 65 59 54 50 46 43 42 41 42 39 35 34 33 32 31 29 27 25 23 23 23 24 25 26 28 30 31 32 33 34 35 35 37
83 82 83 83 79 69 61 61 65 69 68 61 54 48 45 43 41 42 42 38 36 33 30 28 27 25 23 22 22 23 23 24 26 27 29 31 32 33 34 35 37 39
85 83 83 84 85 80 69 59 56 62 67 63 57 50 45 41 38 37 36 34 32 29 27 25 24 24 23 23 23 24 25 26 28 29 31 32 33 35 35 36 39 41
88 85 84 84 84 84 79 67 57 55 58 54 48 44 40 37 34 32 30 29 28 26 25 25 25 25 25 25 25 26 27 29 30 31 32 33 35 36 36 38 40 42
90 88 86 85 83 81 80 74 64 56 52 46 40 38 37 35 33 31 28 27 27 26 26 26 26 26 27 27 28 29 30 31 31 32 33 35 37 37 37 39 41 42
90 89 88 86 84 81 78 74 68 61 53 47 41 38 36 34 34 32 30 29 29 28 27 27 27 28 28 29 30 30 31 31 32 33 34 36 38 38 39 41 42 43
90 88 87 86 84 82 77 72 69 64 59 55 49 43 39 35 33 32 31 31 31 29 29 29 29 30 30 30 31 31 31 32 33 34 36 37 39 40 41 42 42 43
90 87 86 87 85 82 77 73 69 66 65 63 55 47 44 41 36 34 32 32 31 30 29 30 30 31 31 30 31 31 32 34 35 36 37 38 39 41 41 42 43 43
89 87 85 85 85 82 77 72 68 64 63 61 54 48 48 46 42 38 36 34 33 31 30 31 31 31 31 31 31 32 33 35 36 37 38 39 40 41 42 43 43 44
85 85 84 83 83 82 75 69 65 62 57 52 48 47 48 48 44 41 39 37 35 33 33 32 32 32 32 32 32 33 34 35 37 38 39 40 41 43 44 44 44 44
80 81 82 81 80 79 74 66 62 58 52 46 44 45 46 46 44 42 40 37 36 35 34 33 33 33 33 33 34 35 36 37 38 39 40 41 43 44 45 45 45 45
74 76 78 78 77 76 72 64 59 56 50 45 42 42 41 42 41 40 39 37 36 35 34 33 33 33 33 34 35 36 37 38 39 40 41 43 44 45 46 46 46 45
68 71 72 73 72 71 68 62 58 55 51 47 44 41 40 39 38 37 37 36 36 35 34 34 34 34 35 36 37 38 38 39 39 41 42 44 45 45 46 46 46 45
63 64 65 67 67 66 63 59 56 55 52 49 46 43 40 39 38 37 37 36 35 35 35 35 36 36 37 38 38 38 39 39 41 42 44 45 45 46 46 46 45 45
58 58 60 62 61 60 57 56 55 54 52 49 47 45 43 41 39 38 37 37 36 36 36 37 38 38 39 39 39 39 39 41 42 44 45 45 46 46 46 45 45 45
55 57 58 56 55 54 54 53 52 52 50 48 46 44 42 40 39 39 38 37 37 37 37 38 39 39 39 39 39 39 41 42 44 45 45 46 46 46 45 44 45 45
55 56 55 52 51 51 51 49 49 49 47 45 43 41 39 39 38 38 37 37 37 37 38 39 39 39 38 39 39 41 42 44 45 45 45 45 45 44 44 44 45 47
53 52 51 50 50 49 48 47 47 46 43 42 40 39 38 38 38 37 37 37 37 38 38 39 38 38 38 40 41 42 43 44 44 44 43 43 43 43 44 45 47 49
49 49 48 48 47 46 46 46 44 42 40 40 39 39 39 38 38 38 38 38 38 38 38 37 38 38 39 41 42 42 42 43 43 42 42 42 43 44 46 47 49 49
46 46 45 45 44 43 43 42 40 39 39 39 39 38 38 38 38 38 38 38 38 37 37 37 37 39 40 41 42 42 42 42 42 42 42 43 45 47 48 49 48 48
Wind_Direction
228 227 226 225 225 227 228 225 221 221 224 228 231 231 227 226 229 232 233 233 234 234 234 231 229 231 233 236 239 240 240 242 244 245 244 240 240 250 267 276 277 276
226 226 226 226 224 226 228 224 218 214 217 222 227 228 223 221 224 229 229 229 230 231 231 228 224 224 227 231 234 233 232 234 235 233 232 236 250 269 281 284 282 280
227 226 224 223 222 224 224 220 218 214 212 215 220 223 223 223 225 227 225 224 225 226 227 228 228 229 232 237 242 242 239 237 236 238 245 256 269 279 284 284 282 280
231 231 229 224 220 219 218 215 217 216 212 212 216 220 223 223 224 225 225 227 228 230 232 234 237 243 249 257 262 262 261 258 256 258 264 271 276 280 281 281 280 278
235 236 236 234 226 219 215 213 214 215 215 214 216 221 225 224 223 222 221 224 229 231 236 242 249 258 265 271 274 274 275 273 272 272 273 275 277 278 278 277 277 276
237 237 237 238 236 230 225 223 220 220 221 220 219 223 227 228 226 219 216 223 233 241 251 258 264 269 273 275 275 274 274 272 272 271 272 273 275 275 276 276 277 276
236 237 235 235 235 236 235 234 231 229 229 227 222 221 226 230 230 227 231 243 253 259 265 268 271 274 274 272 270 270 270 268 267 266 267 269 270 272 273 274 275 275
233 233 234 233 233 235 239 240 237 234 232 230 228 226 228 233 237 240 247 258 265 268 269 271 272 273 271 269 267 266 266 265 264 265 265 266 268 270 271 272 273 273
231 231 231 232 233 234 237 239 238 234 231 230 231 232 236 241 245 250 256 263 267 267 267 267 267 267 267 266 265 264 264 263 264 265 266 267 269 270 271 272 272 272
230 229 230 231 232 234 235 237 236 233 231 231 233 235 239 245 248 251 255 259 261 261 260 260 262 263 264 263 263 263 264 264 265 267 268 269 270 270 271 271 271 271
230 229 229 230 231 234 236 236 235 234 231 231 237 241 242 245 247 247 247 250 252 253 254 256 258 259 260 261 262 262 263 265 267 267 267 268 268 269 270 270 271 272
230 228 228 229 230 232 235 235 235 234 231 232 238 244 243 245 247 247 244 243 246 249 252 255 256 257 259 260 262 263 265 266 266 265 264 265 266 268 269 270 271 273
230 228 228 229 230 231 233 234 234 232 231 234 239 241 241 242 244 246 246 245 246 249 251 253 256 258 259 261 262 264 264 264 264 263 264 265 267 269 270 272 274 275
229 228 227 227 229 231 232 233 234 233 233 237 241 241 239 238 238 241 244 246 249 251 251 252 255 257 259 260 262 262 261 262 263 264 265 267 269 271 273 275 277 278
227 227 226 226 228 230 231 232 233 235 235 238 240 238 236 236 237 239 242 245 249 251 252 253 254 255 257 258 260 261 262 263 264 266 268 269 271 274 276 278 279 280
225 225 225 225 226 229 231 231 231 233 235 236 235 233 232 234 236 238 242 245 248 250 251 253 254 256 258 259 260 261 262 263 265 267 269 271 273 275 277 279 281 282
221 222 223 223 224 226 229 229 228 229 231 231 230 229 230 233 235 238 241 244 246 248 250 251 253 255 258 260 261 262 264 265 266 268 270 272 274 276 278 280 281 283
217 218 220 221 222 224 226 226 225 225 225 225 226 228 230 232 235 237 239 241 244 247 249 251 253 255 258 260 262 263 264 266 268 269 271 273 275 277 279 281 282 284
213 214 216 218 219 221 222 223 222 221 221 222 223 225 227 229 233 235 238 241 244 248 251 254 256 258 260 262 263 264 265 267 268 270 271 273 276 278 280 282 284 285
207 208 211 214 215 216 218 218 218 218 219 220 221 223 225 229 232 235 238 242 246 249 252 256 258 259 261 262 263 264 265 267 268 270 272 275 277 279 281 283 284 285
198 202 208 210 209 210 212 213 214 215 217 219 221 223 226 229 233 236 240 243 247 250 253 255 257 258 260 261 262 263 264 266 268 270 273 275 278 280 282 283 284 284
191 199 204 202 201 203 206 208 211 213 215 217 219 222 225 229 232 236 239 243 246 249 251 253 255 256 258 259 261 262 264 266 269 271 274 276 279 281 282 283 284 286
188 195 196 193 193 196 199 203 206 209 212 214 217 220 223 226 230 234 238 241 244 247 249 251 253 254 256 257 259 261 264 266 269 272 275 278 280 282 283 285 287 289
186 188 187 186 188 190 194 198 201 205 209 211 214 218 222 226 231 234 238 241 244 246 248 250 252 253 255 257 259 262 265 268 271 275 277 280 282 284 286 288 290 291
179 180 181 183 185 187 190 194 198 202 206 210 215 220 224 229 233 236 240 242 244 246 248 251 252 254 256 258 261 264 268 272 275 277 279 282 284 286 287 289 290 290
173 176 178 180 183 186 190 193 198 202 207 212 218 222 227 231 234 237 240 242 244 247 249 251 253 256 258 261 264 267 271 274 277 279 281 283 284 286 287 288 289 289